TimeEST,TemperatureF,Dew PointF,Humidity,Sea Level PressureIn,VisibilityMPH,Wind Direction,Wind SpeedMPH,Gust SpeedMPH,PrecipitationIn,Events,Conditions,WindDirDegrees,DateUTC
12:15 AM,35.4,5.7,29,30.10,10.0,North,4.6,-,N/A,,Clear,350,2013-02-21 05:15:00
12:35 AM,34.0,6.1,31,30.11,10.0,Calm,Calm,-,N/A,,Clear,0,2013-02-21 05:35:00
12:55 AM,34.0,5.7,31,30.11,10.0,Calm,Calm,-,N/A,,Clear,0,2013-02-21 05:55:00
1:15 AM,31.1,7.2,37,30.11,10.0,Calm,Calm,-,N/A,,Clear,0,2013-02-21 06:15:00
1:35 AM,32.0,7.7,36,30.11,10.0,Calm,Calm,-,N/A,,Clear,0,2013-02-21 06:35:00
1:55 AM,32.0,7.9,36,30.12,10.0,Calm,Calm,-,N/A,,Clear,0,2013-02-21 06:55:00
2:15 AM,31.6,7.7,37,30.12,10.0,Calm,Calm,-,N/A,,Clear,0,2013-02-21 07:15:00
2:35 AM,31.3,7.9,37,30.13,10.0,Calm,Calm,-,N/A,,Clear,0,2013-02-21 07:35:00
2:55 AM,32.4,7.2,35,30.13,10.0,NNW,3.5,-,N/A,,Clear,330,2013-02-21 07:55:00
3:15 AM,28.0,10.4,48,30.13,10.0,Calm,Calm,-,N/A,,Clear,0,2013-02-21 08:15:00
3:35 AM,29.3,9.3,43,30.13,10.0,NNW,3.5,-,N/A,,Clear,340,2013-02-21 08:35:00
3:55 AM,27.7,11.1,50,30.13,10.0,Calm,Calm,-,N/A,,Clear,0,2013-02-21 08:55:00
4:15 AM,28.6,10.0,46,30.13,10.0,North,3.5,-,N/A,,Clear,350,2013-02-21 09:15:00
4:35 AM,26.2,12.0,55,30.14,10.0,Calm,Calm,-,N/A,,Clear,0,2013-02-21 09:35:00
4:55 AM,27.5,10.8,49,30.14,10.0,Calm,Calm,-,N/A,,Clear,0,2013-02-21 09:55:00
5:15 AM,27.1,12.4,54,30.14,10.0,Calm,Calm,-,N/A,,Clear,0,2013-02-21 10:15:00
5:35 AM,25.3,12.7,59,30.15,10.0,Calm,Calm,-,N/A,,Clear,0,2013-02-21 10:35:00
5:55 AM,26.6,12.7,56,30.16,10.0,Calm,Calm,-,N/A,,Clear,0,2013-02-21 10:55:00
6:15 AM,25.7,13.1,59,30.16,10.0,Calm,Calm,-,N/A,,Clear,0,2013-02-21 11:15:00
7:15 AM,23.9,14.9,69,30.18,10.0,Calm,Calm,-,N/A,,Clear,0,2013-02-21 12:15:00
7:35 AM,25.9,13.1,58,30.18,10.0,Calm,Calm,-,N/A,,Clear,0,2013-02-21 12:35:00
7:55 AM,26.2,17.8,70,30.19,10.0,Calm,Calm,-,N/A,,Clear,0,2013-02-21 12:55:00
8:15 AM,28.2,16.5,62,30.20,10.0,Calm,Calm,-,N/A,,Clear,0,2013-02-21 13:15:00
8:35 AM,31.5,16.5,54,30.21,10.0,Calm,Calm,-,N/A,,Clear,0,2013-02-21 13:35:00
8:55 AM,32.5,17.4,54,30.21,10.0,Calm,Calm,-,N/A,,Clear,0,2013-02-21 13:55:00
9:15 AM,35.1,13.3,41,30.21,10.0,Calm,Calm,-,N/A,,Clear,0,2013-02-21 14:15:00
9:35 AM,37.9,13.3,36,30.21,10.0,Calm,Calm,-,N/A,,Clear,0,2013-02-21 14:35:00
9:55 AM,39.7,13.1,34,30.21,10.0,West,3.5,-,N/A,,Clear,270,2013-02-21 14:55:00
10:15 AM,40.6,12.2,31,30.21,10.0,Calm,Calm,-,N/A,,Clear,0,2013-02-21 15:15:00
10:35 AM,42.1,12.0,29,30.21,10.0,Calm,Calm,-,N/A,,Clear,0,2013-02-21 15:35:00
10:55 AM,42.8,11.7,28,30.19,10.0,Calm,Calm,-,N/A,,Clear,0,2013-02-21 15:55:00
11:15 AM,44.8,13.3,28,30.19,10.0,Calm,Calm,-,N/A,,Clear,0,2013-02-21 16:15:00
11:35 AM,46.0,13.3,27,30.19,10.0,South,4.6,-,N/A,,Clear,170,2013-02-21 16:35:00
11:55 AM,47.7,13.6,26,30.17,10.0,Calm,Calm,-,N/A,,Clear,0,2013-02-21 16:55:00
12:15 PM,48.9,12.7,23,30.16,10.0,SSE,3.5,-,N/A,,Clear,150,2013-02-21 17:15:00
12:35 PM,49.8,12.0,22,30.15,10.0,South,3.5,-,N/A,,Clear,170,2013-02-21 17:35:00
12:55 PM,51.6,12.6,21,30.13,10.0,South,4.6,-,N/A,,Clear,170,2013-02-21 17:55:00
1:15 PM,53.1,15.1,22,30.12,10.0,SSE,6.9,-,N/A,,Clear,160,2013-02-21 18:15:00
1:35 PM,54.3,16.2,22,30.10,10.0,SSE,3.5,-,N/A,,Clear,160,2013-02-21 18:35:00
1:55 PM,54.0,15.8,22,30.09,10.0,Calm,Calm,-,N/A,,Clear,0,2013-02-21 18:55:00
2:15 PM,55.6,13.6,19,30.08,10.0,Calm,Calm,-,N/A,,Clear,0,2013-02-21 19:15:00
2:35 PM,55.8,15.3,20,30.08,10.0,SE,6.9,-,N/A,,Clear,130,2013-02-21 19:35:00
2:55 PM,57.0,16.2,20,30.09,10.0,SSE,3.5,-,N/A,,Clear,160,2013-02-21 19:55:00
3:15 PM,57.2,17.2,21,30.10,10.0,SE,4.6,-,N/A,,Clear,140,2013-02-21 20:15:00
3:55 PM,56.7,16.7,21,30.09,10.0,SSE,3.5,-,N/A,,Clear,160,2013-02-21 20:55:00
4:15 PM,56.7,16.0,20,30.08,10.0,SSE,4.6,-,N/A,,Clear,160,2013-02-21 21:15:00
4:35 PM,56.5,17.1,21,30.08,10.0,South,5.8,-,N/A,,Clear,170,2013-02-21 21:35:00
4:55 PM,56.1,16.7,21,30.09,10.0,SE,4.6,-,N/A,,Clear,140,2013-02-21 21:55:00
5:15 PM,55.4,17.8,23,30.08,10.0,SSE,4.6,-,N/A,,Clear,150,2013-02-21 22:15:00
5:35 PM,55.0,17.8,23,30.09,10.0,South,5.8,-,N/A,,Clear,170,2013-02-21 22:35:00
5:55 PM,53.6,18.3,25,30.10,10.0,Calm,Calm,-,N/A,,Clear,0,2013-02-21 22:55:00
6:15 PM,53.4,17.4,24,30.11,10.0,Calm,Calm,-,N/A,,Clear,0,2013-02-21 23:15:00
6:35 PM,52.9,18.7,26,30.10,10.0,ESE,4.6,-,N/A,,Clear,110,2013-02-21 23:35:00
6:55 PM,52.2,18.7,27,30.10,10.0,East,3.5,-,N/A,,Clear,100,2013-02-21 23:55:00
7:15 PM,51.8,19.9,29,30.11,10.0,Calm,Calm,-,N/A,,Clear,0,2013-02-22 00:15:00
7:35 PM,51.3,20.3,30,30.11,10.0,Calm,Calm,-,N/A,,Clear,0,2013-02-22 00:35:00
7:55 PM,50.5,20.7,31,30.11,10.0,Calm,Calm,-,N/A,,Clear,0,2013-02-22 00:55:00
8:15 PM,50.5,20.3,30,30.13,10.0,ESE,3.5,-,N/A,,Clear,110,2013-02-22 01:15:00
8:35 PM,50.7,19.2,29,30.12,10.0,Calm,Calm,-,N/A,,Scattered Clouds,0,2013-02-22 01:35:00
8:55 PM,50.5,19.6,30,30.14,10.0,ENE,3.5,-,N/A,,Mostly Cloudy,60,2013-02-22 01:55:00
9:15 PM,49.5,24.3,37,30.18,10.0,Calm,Calm,-,N/A,Rain,Light Rain,0,2013-02-22 02:15:00
9:35 PM,46.9,26.6,45,30.21,10.0,WSW,3.5,-,N/A,Rain,Light Rain,240,2013-02-22 02:35:00
9:55 PM,45.7,31.8,58,30.18,10.0,ENE,3.5,-,N/A,Rain,Light Rain,70,2013-02-22 02:55:00
10:15 PM,43.9,34.5,70,30.17,10.0,ENE,3.5,-,N/A,Rain,Light Rain,70,2013-02-22 03:15:00
10:35 PM,43.7,33.1,66,30.19,10.0,Calm,Calm,-,0.01,Rain,Light Rain,0,2013-02-22 03:35:00
10:55 PM,41.2,38.7,91,30.21,7.0,Calm,Calm,-,0.03,Rain,Rain,0,2013-02-22 03:55:00
11:15 PM,41.9,37.0,83,30.24,10.0,Calm,Calm,-,0.01,Rain,Light Rain,0,2013-02-22 04:15:00
11:35 PM,39.9,39.2,97,30.24,5.0,Calm,Calm,-,0.05,Rain,Rain,0,2013-02-22 04:35:00
11:55 PM,40.5,36.5,86,30.24,5.0,NNE,4.6,-,0.10,Rain,Light Rain,20,2013-02-22 04:55:00